User: anonymous   Login
Location: Caltech
(34.1382°N, 118.1253°W)
Time: 13:56:08
(UTC-07:00)
Language:

OAO 1 Rocket - Orbit

View from above orbital plane
View from above orbital plane
View from above satellite
View from above satellite

Ground track
Ground track

The orbit data is extracted from the following two-line orbital elements,

1 02144U 66031B   15115.78247713  .00000508  00000-0  15732-3 0  9993
2 02144 035.0421 219.0412 0008156 042.2321 317.8996 14.42401246574929
Epoch (UTC): 25 April 2015 18:46:46
Eccentricity: 0.0008156
inclination: 35.0421°
perigee height: 745 km
apogee height: 756 km
right ascension of ascending node: 219.0412°
argument of perigee: 42.2321°
revolutions per day: 14.42401246
mean anomaly at epoch: 317.8996°
orbit number at epoch: 57492

The dashed part of the orbit path shows where the satellite is in the earth's shadow,  

DLR